S54MI-13 Weather Reports


time (UTC)temp
C
wind
direction
speed
KPH
gust
KPH
rain 1hr
cm
rain 24hr
cm
rain mn
cm
humidity
%
barometer
mb
20260507052024 15 145 4.8 12.9 0.00 0.00 0.00 91
20260507050832 15 171 3.2 4.8 0.00 0.00 0.00 91
20260507045645 15 210 3.2 6.4 0.00 0.00 0.00 91
20260507044438 15 170 4.8 9.7 0.00 0.00 0.00 91
20260507043223 15 144 8.0 14.5 0.00 0.00 0.00 92
20260507042045 15 162 6.4 12.9 0.00 0.00 0.00 92
20260507040821 15 182 6.4 14.5 0.00 0.00 0.00 92
20260507035631 15 173 6.4 9.7 0.00 0.00 0.00 92
20260507034432 15 177 4.8 9.7 0.00 0.00 0.00 92
20260507033225 15 151 4.8 6.4 0.00 0.00 0.00 92
20260507032024 15 150 3.2 4.8 0.00 0.00 0.00 92
20260507030831 15 145 3.2 8.0 0.00 0.00 0.00 92
20260507025615 15 181 4.8 6.4 0.00 0.00 0.00 92
20260507024451 15 196 3.2 4.8 0.00 0.00 0.00 92
20260507023227 15 178 4.8 6.4 0.00 0.00 0.00 92
20260507022040 15 185 4.8 6.4 0.00 0.00 0.00 92
20260507020826 15 187 3.2 4.8 0.00 0.00 0.00 91
20260507015617 15 197 6.4 11.3 0.00 0.00 0.00 92
20260507014451 15 225 4.8 6.4 0.00 0.00 0.00 91
20260507013309 15 168 4.8 9.7 0.00 0.00 0.00 91
20260507012015 15 180 8.0 12.9 0.00 0.00 0.00 91
20260507010831 15 200 6.4 9.7 0.00 0.00 0.00 91
20260507005631 15 215 4.8 8.0 0.00 0.00 0.00 91
20260507004445 15 205 6.4 9.7 0.00 0.00 0.00 90
20260507003217 15 215 6.4 8.0 0.00 0.00 0.00 90
20260507002024 15 217 4.8 6.4 0.00 0.00 0.00 90
20260507000815 15 205 4.8 6.4 0.00 0.00 0.00 90
20260506235621 15 184 6.4 14.5 0.00 0.00 0.00 90
20260506234427 15 163 6.4 9.7 0.00 0.00 0.00 90
20260506233219 15 159 8.0 16.1 0.00 0.00 0.00 90
20260506232024 15 178 8.0 11.3 0.00 0.00 0.00 90
20260506230837 15 171 6.4 9.7 0.00 0.00 0.00 90
20260506225617 15 205 6.4 9.7 0.00 0.00 0.00 89
20260506224415 15 190 4.8 9.7 0.00 0.00 0.00 89
20260506223241 15 187 6.4 9.7 0.00 0.00 0.00 89
20260506222024 15 204 4.8 4.8 0.00 0.00 0.00 88
20260506220830 15 147 6.4 11.3 0.00 0.00 0.00 88
20260506214417 15 176 4.8 9.7 0.00 0.00 0.00 88
20260506213221 15 153 4.8 6.4 0.00 0.00 0.00 88
20260506212104 15 193 8.0 17.7 0.00 0.00 0.00 88
20260506210821 15 197 6.4 12.9 0.00 0.00 0.00 88
20260506205647 15 160 11.3 24.1 0.00 0.00 0.00 88
20260506204430 15 147 11.3 20.9 0.00 0.00 0.00 88
20260506203217 14 200 9.7 14.5 0.00 0.00 0.00 87
20260506202017 14 159 8.0 9.7 0.00 0.00 0.00 87
20260506200823 13 191 6.4 20.9 0.00 0.00 0.00 85
20260506195630 13 167 8.0 14.5 0.00 0.00 0.00 85
20260506194421 13 192 9.7 12.9 0.00 0.00 0.00 85
20260506193227 13 143 9.7 16.1 0.00 0.00 0.00 85
20260506192019 13 181 4.8 6.4 0.00 0.00 0.00 85
20260506190825 14 207 4.8 9.7 0.00 0.00 0.00 86
20260506185637 14 152 8.0 12.9 0.00 0.00 0.00 85
20260506184423 15 151 4.8 9.7 0.00 0.00 0.00 85
20260506183235 15 171 6.4 8.0 0.00 0.00 0.00 84
20260506182023 15 191 6.4 9.7 0.00 0.00 0.00 82
20260506180819 16 191 8.0 11.3 0.00 0.00 0.00 81
20260506175619 16 185 8.0 19.3 0.00 0.00 0.00 80
20260506174505 16 136 9.7 20.9 0.00 0.00 0.00 80
20260506173237 16 160 6.4 8.0 0.00 0.00 0.00 80
20260506172021 17 142 8.0 12.9 0.00 0.00 0.00 78
20260506170815 17 154 9.7 12.9 0.00 0.00 0.00 78
20260506165641 17 126 11.3 16.1 0.00 0.00 0.00 78
20260506164424 17 136 12.9 17.7 0.00 0.00 0.00 77
20260506163219 18 156 9.7 17.7 0.00 0.00 0.00 77
20260506162020 19 159 9.7 14.5 0.00 0.00 0.00 76
20260506160829 19 146 12.9 20.9 0.00 0.00 0.00 76
20260506155623 19 159 11.3 17.7 0.00 0.00 0.00 76
20260506154415 19 140 14.5 20.9 0.00 0.00 0.00 76
20260506153221 20 162 8.0 9.7 0.00 0.00 0.00 76
20260506152018 20 174 4.8 8.0 0.00 0.00 0.00 76
20260506150839 20 171 8.0 16.1 0.00 0.00 0.00 76
20260506145625 20 145 9.7 12.9 0.00 0.00 0.00 76
20260506144429 20 160 9.7 16.1 0.00 0.00 0.00 77
20260506143223 19 173 8.0 12.9 0.00 0.00 0.00 78
20260506142035 19 169 9.7 14.5 0.00 0.00 0.00 78
20260506140829 19 132 8.0 12.9 0.00 0.00 0.00 80
20260506135627 18 193 8.0 14.5 0.00 0.00 0.00 81
20260506134419 18 180 8.0 11.3 0.00 0.00 0.00 81
20260506133229 18 168 6.4 16.1 0.00 0.00 0.00 81
20260506132017 18 160 9.7 17.7 0.00 0.00 0.00 81
20260506130823 18 193 8.0 11.3 0.00 0.00 0.00 82
20260506125615 18 146 8.0 11.3 0.00 0.00 0.00 84
20260506124429 18 194 8.0 9.7 0.00 0.00 0.00 85
20260506123229 17 206 8.0 14.5 0.00 0.00 0.00 86
20260506122015 17 188 6.4 11.3 0.00 0.00 0.00 86
20260506120829 17 189 6.4 9.7 0.00 0.00 0.00 86
20260506115617 17 195 6.4 12.9 0.00 0.00 0.00 87
20260506114423 16 214 6.4 9.7 0.00 0.00 0.00 87
20260506113249 16 196 4.8 6.4 0.00 0.00 0.00 87
20260506112021 16 169 6.4 8.0 0.00 0.00 0.00 87
20260506110827 16 135 8.0 14.5 0.00 0.00 0.00 87
20260506105619 16 145 9.7 16.1 0.00 0.00 0.00 87
20260506104425 16 161 9.7 20.9 0.00 0.00 0.00 88
20260506103217 16 175 9.7 16.1 0.00 0.00 0.00 88
20260506102023 16 155 9.7 12.9 0.00 0.00 0.00 89
20260506100815 15 166 9.7 14.5 0.00 0.00 0.00 89
20260506095618 15 132 6.4 12.9 0.00 0.00 0.00 89
20260506094448 15 139 8.0 17.7 0.00 0.00 0.00 90
20260506093227 15 157 8.0 16.1 0.00 0.00 0.00 90
20260506092025 15 139 8.0 12.9 0.00 0.00 0.00 90
20260506090817 15 153 9.7 16.1 0.00 0.00 0.00 91
20260506085623 15 131 11.3 24.1 0.00 0.00 0.00 91
20260506084429 15 182 8.0 11.3 0.00 0.00 0.00 90
20260506083221 15 193 11.3 14.5 0.00 0.00 0.00 90
20260506082028 15 146 9.7 17.7 0.00 0.00 0.00 90
20260506080828 15 143 11.3 17.7 0.00 0.00 0.00 90
20260506073239 14 139 4.8 9.7 0.00 0.00 0.00 89
20260506072015 14 140 4.8 14.5 0.00 0.00 0.00 88
20260506070821 14 163 4.8 9.7 0.00 0.00 0.00 88
20260506062028 15 138 4.8 11.3 0.00 0.00 0.00 83
20260506060824 16 177 4.8 9.7 0.00 0.00 0.00 82